Regional Weather Roundup
Issued by NWS

Home | Current Version | Previous Version | Graphics & Text | Print | Product List | Glossary On
Versions: 1 2 3 4 5 6 7 8 9 10 11 12 13 14 15 16 17 18 19 20 21 22 23 24 25 26 27 28 29 30 31 32 33 34 35 36 37 38 39 40 41 42 43 44 45 46 47 48 49 50
000
ASUS45 KPSR 261010
RWRAZ

ARIZONA HOURLY REGIONAL WEATHER ROUNDUP
NATIONAL WEATHER SERVICE PHOENIX AZ
300 AM MST TUE MAY 26 2015

NOTE: FAIR INDICATES FEW OR NO CLOUDS BELOW 12,000 FEET WITH NO
SIGNIFICANT WEATHER AND/OR OBSTRUCTIONS TO VISIBILITY.

AZZ001>003-036-261100-
NORTHWEST ARIZONA

CITY           SKY/WX    TMP DP  RH WIND       PRES   REMARKS
BULLHEAD CITY  CLEAR     77  37  24 W5        29.85S
KINGMAN        CLEAR     59  35  40 E8        29.98R
$$

AZZ004>008-015-016-018-261100-
NORTH CENTRAL ARIZONA

CITY           SKY/WX    TMP DP  RH WIND       PRES   REMARKS
GRAND CANYON   MOCLDY    37  36  96 NE3       30.15R
WILLIAMS       CLEAR     43  36  75 SE6       30.21S
PRESCOTT       CLEAR     56  34  43 CALM      30.08S
FLAGSTAFF      CLEAR     37  36  96 CALM      30.17R
PAYSON         CLEAR     52  37  58 CALM      30.11S
PAGE           CLEAR     57  45  64 CALM      29.99R
$$

AZZ009>014-017-261100-
NORTHEAST ARIZONA

CITY           SKY/WX    TMP DP  RH WIND       PRES   REMARKS
WINSLOW        CLEAR     49  43  80 SE3       30.07S
SAINT JOHNS    CLEAR     47  38  71 SE3       30.10S
WINDOW ROCK    CLEAR     37  35  92 CALM      30.14S
SHOW LOW       CLEAR     46  37  71 S9        30.15S
$$

AZZ023-261100-
GREATER PHOENIX AREA

CITY           SKY/WX    TMP DP  RH WIND       PRES   REMARKS
PHOENIX        CLEAR     76  39  26 NW7       29.88S
BUCKEYE        CLEAR     66  37  34 NE5       29.90S
LUKE AFB       CLEAR     69  43  38 CALM      29.88S
DEER VALLEY    CLEAR     67  40  37 CALM      29.90S
SCOTTSDALE     CLEAR     73  39  29 N3        29.92S
MESA-GATEWAY   CLEAR     64  43  45 N6        29.92F
$$

AZZ027-028-261100-
SOUTHWEST MARICOPA COUNTY AND PINAL COUNTY

CITY           SKY/WX    TMP DP  RH WIND       PRES   REMARKS
CASA GRANDE    CLEAR     66  39  37 CALM      29.91S
GILA BEND      FAIR      68  41  38 E3        29.88S
$$

AZZ503-504-507>509-261100-
SOUTHEAST ARIZONA

CITY           SKY/WX    TMP DP  RH WIND       PRES   REMARKS
TUCSON         PTCLDY    66  37  34 S6        29.99F
DAVIS-MONTHAN  CLEAR     63  37  37 S8        29.98S
NOGALES        CLEAR     56  30  37 E7        30.04F
SIERRA VISTA   PTCLDY    57  24  27 S7        30.09S
DOUGLAS        CLEAR     52  24  33 NE5       30.06S
SAFFORD        CLEAR     59  34  39 CALM      29.97F
$$

AZZ020-021-025-026-031-261100-
SOUTHWEST ARIZONA

CITY           SKY/WX    TMP DP  RH WIND       PRES   REMARKS
YUMA           PTCLDY    70  47  43 SE6       29.85F
$$

CAZ031-033-041-043-047-048-061-261100-
SOUTHERN CALIFORNIA

CITY           SKY/WX    TMP DP  RH WIND       PRES   REMARKS
DOWNTOWN L.A.  CLOUDY    62  54  74 CALM      29.96F
L.A. AIRPORT   CLOUDY    60  55  83 W6        29.98S
SAN DIEGO      CLOUDY    63  54  72 W5        30.00R
BURBANK        CLOUDY    62  53  72 CALM      29.96F
ONTARIO        CLOUDY    60  53  77 NW6       29.96S
RIVERSIDE      CLOUDY    61  54  77 CALM      29.97S
PALM SPRINGS   CLEAR     69  52  54 NW6       29.89S
EL CENTRO NAS  CLEAR     64  54  69 E3        29.85R
IMPERIAL       CLEAR     67  55  65 E7        29.83S
BLYTHE         CLEAR     72  41  32 S8        29.85S
NEEDLES        CLEAR     78  33  19 SW3       29.85S
$$

NVZ020-UTZ003-261100-
SOUTHERN NEVADA-UTAH

CITY           SKY/WX    TMP DP  RH WIND       PRES   REMARKS
LAS VEGAS      PTCLDY    77  38  24 S14       29.83S
SALT LAKE CITY MOCLDY    57  45  64 E5        29.98R
$$

NMZ009-TXZ055-261100-
NEW MEXICO-WEST TEXAS

CITY           SKY/WX    TMP DP  RH WIND       PRES   REMARKS
ALBUQUERQUE    CLEAR     52  47  83 CALM      30.09R
EL PASO        CLEAR     65  37  35 CALM      30.02R
$$


........................KEY........................
SKY/WX - SKY CONDITION/WEATHER
TMP    - TEMPERATURE IN FAHRENHEIT
DP     - DEW POINT IN FAHRENHEIT
RH     - RELATIVE HUMIDITY IN PERCENT
WIND   - DIRECTION AND SPEED IN MILES PER HOUR (MPH)
VRB    - VARIABLE WIND DIRECTION
PRES   - MEAN SEA LEVEL PRESSURE IN INCHES OF MERCURY
         F - FALLING PRESSURE   R - RISING PRESSURE
         S - STEADY PRESSURE
VSB    - VISIBILITY IN MILES
HX     - HEAT INDEX IN FAHRENHEIT
WCI    - WIND CHILL INDEX IN FAHRENHEIT
TC     - TEMPERATURE IN CELSIUS WHICH IS ALSO KNOWN AS
         TEMPERATURE IN CENTIGRADE
AFB    - AIR FORCE BASE
         LUKE AFB IS LUKE AIR FORCE BASE
         DAVIS-MONTHAN IS DAVIS-MONTHAN AIR FORCE BASE
NAS    - NAVAL AIR STATION
         EL CENTRO NAS IS EL CENTRO NAVAL AIR STATION
N/A    - NOT AVAILABLE




USA.gov is the U.S. government's official web portal to all federal, state and local government web resources and services.